Time,TemperatureF,DewpointF,PressureIn,WindDirection,WindDirectionDegrees,WindSpeedMPH,WindSpeedGustMPH,Humidity,HourlyPrecipIn,Conditions,Clouds,dailyrainin,SolarRadiationWatts/m^2,SoftwareType,DateUTC
2013-06-02 00:01:00,76.0,29.0,-100.00,East,81,21.0,28.0,18,0.00,,,0.00,0.000000,,2013-06-02 06:01:00,
2013-06-02 00:12:00,76.0,29.0,-100.00,East,81,21.0,28.0,18,0.00,,,0.00,0.000000,,2013-06-02 06:12:00,
2013-06-02 00:21:00,76.0,29.0,-100.00,East,81,21.0,28.0,18,0.00,,,0.00,0.000000,,2013-06-02 06:21:00,
2013-06-02 00:52:00,71.0,34.0,-100.00,East,80,24.0,39.0,26,0.00,,,0.00,0.000000,,2013-06-02 06:52:00,
2013-06-02 01:01:00,71.0,34.0,-100.00,East,80,24.0,39.0,26,0.00,,,0.00,0.000000,,2013-06-02 07:01:00,
2013-06-02 01:11:00,71.0,34.0,-100.00,East,80,24.0,39.0,26,0.00,,,0.00,0.000000,,2013-06-02 07:11:00,
2013-06-02 01:21:00,71.0,34.0,-100.00,East,80,24.0,39.0,26,0.00,,,0.00,0.000000,,2013-06-02 07:21:00,
2013-06-02 01:52:00,70.0,36.0,-100.00,ENE,75,29.0,45.0,29,0.00,,,0.00,0.000000,,2013-06-02 07:52:00,
2013-06-02 02:02:00,70.0,36.0,-100.00,ENE,75,29.0,45.0,29,0.00,,,0.00,0.000000,,2013-06-02 08:02:00,
2013-06-02 02:12:00,70.0,36.0,-100.00,ENE,75,29.0,45.0,29,0.00,,,0.00,0.000000,,2013-06-02 08:12:00,
2013-06-02 02:21:00,70.0,36.0,-100.00,ENE,75,29.0,45.0,29,0.00,,,0.00,0.000000,,2013-06-02 08:21:00,
2013-06-02 02:52:00,70.0,35.0,-100.00,East,90,25.0,42.0,28,0.00,,,0.00,0.000000,,2013-06-02 08:52:00,
2013-06-02 03:01:00,70.0,35.0,-100.00,East,90,25.0,42.0,28,0.00,,,0.00,0.000000,,2013-06-02 09:01:00,
2013-06-02 03:11:00,70.0,35.0,-100.00,East,90,25.0,42.0,28,0.00,,,0.00,0.000000,,2013-06-02 09:11:00,
2013-06-02 03:21:00,70.0,35.0,-100.00,East,90,25.0,42.0,28,0.00,,,0.00,0.000000,,2013-06-02 09:21:00,
2013-06-02 03:53:00,71.0,39.0,-100.00,East,99,27.0,42.0,31,0.00,,,0.00,0.000000,,2013-06-02 09:53:00,
2013-06-02 04:02:00,71.0,39.0,-100.00,East,99,27.0,42.0,31,0.00,,,0.00,0.000000,,2013-06-02 10:02:00,
2013-06-02 04:12:00,71.0,39.0,-100.00,East,99,27.0,42.0,31,0.00,,,0.00,0.000000,,2013-06-02 10:12:00,
2013-06-02 04:22:00,71.0,39.0,-100.00,East,99,27.0,42.0,31,0.00,,,0.00,0.000000,,2013-06-02 10:22:00,
2013-06-02 04:52:00,70.0,44.0,-100.00,East,86,25.0,42.0,39,0.00,,,0.00,0.000000,,2013-06-02 10:52:00,
2013-06-02 05:02:00,70.0,44.0,-100.00,East,86,25.0,42.0,39,0.00,,,0.00,0.000000,,2013-06-02 11:02:00,
2013-06-02 05:12:00,70.0,44.0,-100.00,East,86,25.0,42.0,39,0.00,,,0.00,0.000000,,2013-06-02 11:12:00,
2013-06-02 05:22:00,70.0,44.0,-100.00,East,86,25.0,42.0,39,0.00,,,0.00,0.000000,,2013-06-02 11:22:00,
2013-06-02 05:52:00,68.0,43.0,-100.00,ENE,74,28.0,40.0,41,0.00,,,0.00,0.000000,,2013-06-02 11:52:00,
2013-06-02 06:01:00,68.0,43.0,-100.00,ENE,74,28.0,40.0,41,0.00,,,0.00,0.000000,,2013-06-02 12:01:00,
2013-06-02 06:11:00,68.0,43.0,-100.00,ENE,74,28.0,40.0,41,0.00,,,0.00,0.000000,,2013-06-02 12:11:00,
2013-06-02 06:21:00,68.0,43.0,-100.00,ENE,74,28.0,40.0,41,0.00,,,0.00,0.000000,,2013-06-02 12:21:00,
2013-06-02 06:52:00,66.0,43.0,-100.00,ENE,77,28.0,45.0,43,0.00,,,0.00,4.000000,,2013-06-02 12:52:00,
2013-06-02 07:01:00,66.0,43.0,-100.00,ENE,77,28.0,45.0,43,0.00,,,0.00,4.000000,,2013-06-02 13:01:00,
2013-06-02 07:11:00,66.0,43.0,-100.00,ENE,77,28.0,45.0,43,0.00,,,0.00,4.000000,,2013-06-02 13:11:00,
2013-06-02 07:21:00,66.0,43.0,-100.00,ENE,77,28.0,45.0,43,0.00,,,0.00,4.000000,,2013-06-02 13:21:00,
2013-06-02 07:52:00,68.0,47.0,-100.00,ENE,78,25.0,42.0,47,0.00,,,0.00,76.000000,,2013-06-02 13:52:00,
2013-06-02 08:02:00,68.0,47.0,-100.00,ENE,78,25.0,42.0,47,0.00,,,0.00,76.000000,,2013-06-02 14:02:00,
2013-06-02 08:11:00,68.0,47.0,-100.00,ENE,78,25.0,42.0,47,0.00,,,0.00,76.000000,,2013-06-02 14:11:00,
2013-06-02 08:21:00,68.0,47.0,-100.00,ENE,78,25.0,42.0,47,0.00,,,0.00,76.000000,,2013-06-02 14:21:00,
2013-06-02 08:52:00,71.0,48.0,-100.00,ENE,76,25.0,45.0,44,0.00,,,0.00,384.000000,,2013-06-02 14:52:00,
2013-06-02 09:01:00,71.0,48.0,-100.00,ENE,76,25.0,45.0,44,0.00,,,0.00,384.000000,,2013-06-02 15:01:00,
2013-06-02 09:11:00,71.0,48.0,-100.00,ENE,76,25.0,45.0,44,0.00,,,0.00,384.000000,,2013-06-02 15:11:00,
2013-06-02 09:21:00,71.0,48.0,-100.00,ENE,76,25.0,45.0,44,0.00,,,0.00,384.000000,,2013-06-02 15:21:00,
2013-06-02 09:53:00,74.0,49.0,-100.00,East,97,22.0,40.0,41,0.00,,,0.00,640.000000,,2013-06-02 15:53:00,
2013-06-02 10:03:00,74.0,49.0,-100.00,East,97,22.0,40.0,41,0.00,,,0.00,640.000000,,2013-06-02 16:03:00,
2013-06-02 10:13:00,74.0,49.0,-100.00,East,97,22.0,40.0,41,0.00,,,0.00,640.000000,,2013-06-02 16:13:00,
2013-06-02 10:23:00,74.0,49.0,-100.00,East,97,22.0,40.0,41,0.00,,,0.00,640.000000,,2013-06-02 16:23:00,
2013-06-02 10:53:00,74.0,47.0,-100.00,East,85,22.0,37.0,39,0.00,,,0.00,869.000000,,2013-06-02 16:53:00,
2013-06-02 11:02:00,74.0,47.0,-100.00,East,85,22.0,37.0,39,0.00,,,0.00,869.000000,,2013-06-02 17:02:00,
2013-06-02 11:12:00,74.0,47.0,-100.00,East,85,22.0,37.0,39,0.00,,,0.00,869.000000,,2013-06-02 17:12:00,
2013-06-02 11:22:00,74.0,47.0,-100.00,East,85,22.0,37.0,39,0.00,,,0.00,869.000000,,2013-06-02 17:22:00,
2013-06-02 11:52:00,80.0,46.0,-100.00,East,85,12.0,35.0,30,0.00,,,0.00,1057.000000,,2013-06-02 17:52:00,
2013-06-02 12:02:00,80.0,46.0,-100.00,East,85,12.0,35.0,30,0.00,,,0.00,1057.000000,,2013-06-02 18:02:00,
2013-06-02 12:11:00,80.0,46.0,-100.00,East,85,12.0,35.0,30,0.00,,,0.00,1057.000000,,2013-06-02 18:11:00,
2013-06-02 12:21:00,80.0,46.0,-100.00,East,85,12.0,35.0,30,0.00,,,0.00,1057.000000,,2013-06-02 18:21:00,
2013-06-02 12:52:00,80.0,45.0,-100.00,ENE,74,17.0,30.0,29,0.00,,,0.00,1186.000000,,2013-06-02 18:52:00,
2013-06-02 13:01:00,80.0,45.0,-100.00,ENE,74,17.0,30.0,29,0.00,,,0.00,1186.000000,,2013-06-02 19:01:00,
2013-06-02 13:11:00,80.0,45.0,-100.00,ENE,74,17.0,30.0,29,0.00,,,0.00,1186.000000,,2013-06-02 19:11:00,
2013-06-02 13:21:00,80.0,45.0,-100.00,ENE,74,17.0,30.0,29,0.00,,,0.00,1186.000000,,2013-06-02 19:21:00,
2013-06-02 13:52:00,85.0,47.0,-100.00,East,98,12.0,31.0,27,0.00,,,0.00,1227.000000,,2013-06-02 19:52:00,
2013-06-02 14:02:00,85.0,47.0,-100.00,East,98,12.0,31.0,27,0.00,,,0.00,1227.000000,,2013-06-02 20:02:00,
2013-06-02 14:11:00,85.0,47.0,-100.00,East,98,12.0,31.0,27,0.00,,,0.00,1227.000000,,2013-06-02 20:11:00,
2013-06-02 14:21:00,85.0,47.0,-100.00,East,98,12.0,31.0,27,0.00,,,0.00,1227.000000,,2013-06-02 20:21:00,
2013-06-02 14:52:00,85.0,45.0,-100.00,ESE,104,13.0,30.0,25,0.00,,,-99.99,1207.000000,,2013-06-02 20:52:00,
2013-06-02 15:01:00,85.0,45.0,-100.00,ESE,104,13.0,30.0,25,0.00,,,-99.99,1207.000000,,2013-06-02 21:01:00,
2013-06-02 15:12:00,85.0,45.0,-100.00,ESE,104,13.0,30.0,25,0.00,,,-99.99,1207.000000,,2013-06-02 21:12:00,
2013-06-02 15:21:00,85.0,45.0,-100.00,ESE,104,13.0,30.0,25,0.00,,,-99.99,1207.000000,,2013-06-02 21:21:00,
2013-06-02 15:53:00,86.0,44.0,-100.00,East,88,15.0,32.0,23,0.00,,,0.00,1125.000000,,2013-06-02 21:53:00,
2013-06-02 16:03:00,86.0,44.0,-100.00,East,88,15.0,32.0,23,0.00,,,0.00,1125.000000,,2013-06-02 22:03:00,
2013-06-02 16:12:00,86.0,44.0,-100.00,East,88,15.0,32.0,23,0.00,,,0.00,1125.000000,,2013-06-02 22:12:00,
2013-06-02 16:23:00,86.0,44.0,-100.00,East,88,15.0,32.0,23,0.00,,,0.00,1125.000000,,2013-06-02 22:23:00,
2013-06-02 16:53:00,87.0,45.0,-100.00,ESE,105,11.0,27.0,23,0.00,,,0.00,907.000000,,2013-06-02 22:53:00,
2013-06-02 17:02:00,87.0,45.0,-100.00,ESE,105,11.0,27.0,23,0.00,,,0.00,907.000000,,2013-06-02 23:02:00,
2013-06-02 17:12:00,87.0,45.0,-100.00,ESE,105,11.0,27.0,23,0.00,,,0.00,907.000000,,2013-06-02 23:12:00,
2013-06-02 17:22:00,87.0,45.0,-100.00,ESE,105,11.0,27.0,23,0.00,,,0.00,907.000000,,2013-06-02 23:22:00,
2013-06-02 17:52:00,88.0,41.0,-100.00,SE,137,7.0,28.0,19,0.00,,,0.00,603.000000,,2013-06-02 23:52:00,
2013-06-02 18:01:00,88.0,41.0,-100.00,SE,137,7.0,28.0,19,0.00,,,0.00,603.000000,,2013-06-03 00:01:00,
2013-06-02 18:12:00,88.0,41.0,-100.00,SE,137,7.0,28.0,19,0.00,,,0.00,603.000000,,2013-06-03 00:12:00,
2013-06-02 18:21:00,88.0,41.0,-100.00,SE,137,7.0,28.0,19,0.00,,,0.00,603.000000,,2013-06-03 00:21:00,
2013-06-02 18:52:00,85.0,45.0,-100.00,SE,137,11.0,18.0,25,0.00,,,0.00,196.000000,,2013-06-03 00:52:00,
2013-06-02 19:01:00,85.0,45.0,-100.00,SE,137,11.0,18.0,25,0.00,,,0.00,196.000000,,2013-06-03 01:01:00,
2013-06-02 19:11:00,85.0,45.0,-100.00,SE,137,11.0,18.0,25,0.00,,,0.00,196.000000,,2013-06-03 01:11:00,
2013-06-02 19:21:00,85.0,45.0,-100.00,SE,137,11.0,18.0,25,0.00,,,0.00,196.000000,,2013-06-03 01:21:00,
2013-06-02 19:52:00,73.0,48.0,-100.00,ESE,108,26.0,49.0,41,0.00,,,0.00,166.000000,,2013-06-03 01:52:00,
2013-06-02 20:02:00,73.0,48.0,-100.00,ESE,108,26.0,49.0,41,0.00,,,0.00,166.000000,,2013-06-03 02:02:00,
2013-06-02 20:12:00,73.0,48.0,-100.00,ESE,108,26.0,49.0,41,0.00,,,0.00,166.000000,,2013-06-03 02:12:00,
2013-06-02 20:22:00,73.0,48.0,-100.00,ESE,108,26.0,49.0,41,0.00,,,0.00,166.000000,,2013-06-03 02:22:00,
2013-06-02 20:52:00,71.0,43.0,-100.00,ESE,104,29.0,47.0,36,0.00,,,0.00,28.000000,,2013-06-03 02:52:00,
2013-06-02 21:02:00,71.0,43.0,-100.00,ESE,104,29.0,47.0,36,0.00,,,0.00,28.000000,,2013-06-03 03:02:00,
2013-06-02 21:12:00,71.0,43.0,-100.00,ESE,104,29.0,47.0,36,0.00,,,0.00,28.000000,,2013-06-03 03:12:00,
2013-06-02 21:22:00,71.0,43.0,-100.00,ESE,104,29.0,47.0,36,0.00,,,0.00,28.000000,,2013-06-03 03:22:00,
2013-06-02 21:53:00,73.0,39.0,-100.00,ESE,108,25.0,44.0,29,0.00,,,0.00,0.000000,,2013-06-03 03:53:00,
2013-06-02 22:03:00,73.0,39.0,-100.00,ESE,108,25.0,44.0,29,0.00,,,0.00,0.000000,,2013-06-03 04:03:00,
2013-06-02 22:13:00,73.0,39.0,-100.00,ESE,108,25.0,44.0,29,0.00,,,0.00,0.000000,,2013-06-03 04:13:00,
2013-06-02 22:23:00,73.0,39.0,-100.00,ESE,108,25.0,44.0,29,0.00,,,0.00,0.000000,,2013-06-03 04:23:00,
2013-06-02 22:53:00,74.0,38.0,-100.00,ESE,106,24.0,41.0,27,0.00,,,0.00,0.000000,,2013-06-03 04:53:00,
2013-06-02 23:02:00,74.0,38.0,-100.00,ESE,106,24.0,41.0,27,0.00,,,0.00,0.000000,,2013-06-03 05:02:00,
2013-06-02 23:12:00,74.0,38.0,-100.00,ESE,106,24.0,41.0,27,0.00,,,0.00,0.000000,,2013-06-03 05:12:00,
2013-06-02 23:22:00,74.0,38.0,-100.00,ESE,106,24.0,41.0,27,0.00,,,0.00,0.000000,,2013-06-03 05:22:00,
2013-06-02 23:52:00,69.0,41.0,-100.00,ESE,110,28.0,47.0,36,0.00,,,0.00,0.000000,,2013-06-03 05:52:00,